Regional Weather Roundup
Issued by NWS

Home | Current Version | Previous Version | Graphics & Text | Print | Product List | Glossary On
Versions: 1 2 3 4 5 6 7 8 9 10 11 12 13 14 15 16 17 18 19 20 21 22 23 24 25 26 27 28 29 30 31 32 33 34 35 36 37 38 39 40 41 42 43 44 45 46 47 48 49 50
000
ASUS43 KIND 171459
RWRIN

WEATHER ROUNDUP FOR INDIANA
NATIONAL WEATHER SERVICE INDIANAPOLIS IN
1000 AM EST WED JAN 17 2018

NOTE: "FAIR" INDICATES FEW OR NO CLOUDS BELOW 12,000 FEET WITH NO
SIGNIFICANT WEATHER AND/OR OBSTRUCTIONS TO VISIBILITY.

* - STATION DOES NOT REPORT WEATHER SUCH AS PRECIPITATION OR FOG.

+ - STATION NOT QUALITY CONTROLLED BY THE NATIONAL WEATHER SERVICE.
    USE DATA WITH CAUTION...ESPECIALLY DEWPOINT AND RELATIVE
    HUMIDITY OBSERVATIONS.

INZ001>003-010>013-019-020-171600-
NORTHWEST INDIANA

CITY           SKY/WX    TMP DP  RH WIND       PRES   REMARKS
GARY /AIRPORT/ MOSUNNY  N/A N/A N/A SW6       30.55R
KNOX *+        FAIR       1   0  92 SW5       30.53S WCI  -8
MONTICELLO +   FAIR       2  -2  83 W6        30.56S WCI  -9
VALPARAISO     CLOUDY     3   0  85 SW6       30.53R FOG     WCI  -8

$$

LMZ046-743>745-171600-
SOUTHERN LAKE MICHIGAN

STATION/POSITION TIME  TEMP    WIND        PRES    WAVE
                       AIR SEA DIR/SP/G            HT
                 (UTC) (F)     (DEG/KT/KT) (MB)    (FT)
BURNS HARBOR     1440    9     210/  7/ 10 1034.5R
MICHIGAN CITY    1430    9     190/  9/ 10   N/A

$$

INZ004-005-014>016-021>024-171600-
NORTH CENTRAL INDIANA

CITY           SKY/WX    TMP DP  RH WIND       PRES   REMARKS
ELKHART        FAIR      14  10  85 W7        30.49R WCI   4
GOSHEN         FAIR      10   7  87 SW5       30.50R FOG     WCI   2
PERU/GRISSOM   FAIR       3   1  91 W8        30.54R WCI -11
SOUTH BEND     FAIR       7   4  87 SW6       30.51R FOG     WCI  -3

$$

INZ006>009-017-018-025>027-171600-
NORTHEAST INDIANA

CITY           SKY/WX    TMP DP  RH WIND       PRES   REMARKS
FORT WAYNE     LGT SNOW  11   8  88 SW8       30.53R FOG     WCI  -1
KENDALLVILLE + CLOUDY     9   7  89 W3        30.48R

$$

INZ028-029-035-036-043>045-051>053-171600-
WEST CENTRAL INDIANA

CITY           SKY/WX    TMP DP  RH WIND       PRES   REMARKS
GREENCASTLE +  FAIR       3   0  85 W3        30.59R
LAFAYETTE      FAIR       2   0  91 SW7       30.59R WCI -11
TERRE HAUTE    FAIR       5  -1  76 NW5       30.63R WCI  -4

$$

INZ030>032-037>040-046>048-054>057-064-065-171600-
CENTRAL INDIANA

CITY           SKY/WX    TMP DP  RH WIND       PRES   REMARKS
ANDERSON       CLOUDY     9   3  78 CALM      30.53S
INDIANAPOLIS   FAIR       4   0  83 SW6       30.58R WCI  -7
-EAGLE CREEK   FAIR       5   2  87 CALM      30.57R
MT COMFORT *+  CLOUDY     5   3  92 W6        30.56S WCI  -6
SHELBYVILLE    CLOUDY     6   1  80 W8        30.58R WCI  -7

$$

INZ033-034-041-042-049-050-058-059-171600-
EAST CENTRAL INDIANA

CITY           SKY/WX    TMP DP  RH WIND       PRES   REMARKS
MUNCIE         LGT SNOW  10   4  76 W7        30.53R WCI  -1
RICHMOND +     LGT SNOW   9   5  85 W7        30.52S WCI  -3

$$

INZ060-061-067>069-081>083-085>088-171600-
SOUTHWEST INDIANA

CITY           SKY/WX    TMP DP  RH WIND       PRES   REMARKS
EVANSVILLE     LGT SNOW   8   3  80 NW8       30.69R WCI  -4
HUNTINGBURG +  LGT SNOW  10   4  76 NW6       30.66R WCI   0

$$

INZ062-063-066-070>080-084-089>092-171600-
SOUTH CENTRAL AND SOUTHEAST INDIANA

CITY           SKY/WX    TMP DP  RH WIND       PRES   REMARKS
BLOOMINGTON    FAIR       3   0  87 W5        30.60R WCI  -6
FRENCH LICK *+ CLOUDY     9   1  72 W5        30.62R WCI   0
MADISON *+     CLOUDY    10   5  79 W5        30.61R WCI   2
SEYMOUR +      LGT SNOW  10   5  79 W6        30.62R WCI   1

$$





USA.gov is the U.S. government's official web portal to all federal, state and local government web resources and services.